Weather Roundup
Issued by NWS Springfield, MO

Home | Current Version | Previous Version | Text Only | Print | Product List | Glossary On
Versions: 1 2 3 4 5 6 7 8 9 10 11 12 13 14 15 16 17 18 19 20 21 22 23 24 25 26 27 28 29 30 31 32 33 34 35 36 37 38 39 40 41 42 43 44 45 46 47 48 49 50
000
NZUS99 KSGF 292007
HRRSGF

HOURLY WEATHER
NATIONAL WEATHER SERVICE SPRINGFIELD MO
300 PM CDT MON SEP 29 2014

......SGF CWA......

CITY           SKY/WX    TMP DP  RH WIND       PRES   REMARKS
SPRINGFIELD    SUNNY     84  54  35 VRB3      30.01F
JOPLIN         SUNNY     85  58  39 SE6       30.01F
WEST PLAINS    MOSUNNY   82  54  37 E5        30.01F
ROLLA          SUNNY     83  53  35 N5        30.00F
OSAGE BEACH    MOSUNNY   84  55  37 CALM      30.01F
BRANSON        MOSUNNY   88  54  31 SW3       30.02F

......SURROUNDING SGF CWA......

CITY           SKY/WX    TMP DP  RH WIND       PRES   REMARKS
CHANUTE        MOSUNNY   83  63  50 VRB6      30.00F
PARSONS        CLOUDY    85  62  46 VRB5      30.01F
COFFEYVILLE    SUNNY     83  61  47 S3        29.99F
EMPORIA        MOSUNNY   82  58  43 S8        30.00F
GROVE OK       SUNNY     84  59  42 CALM      30.01F
ROGERS AR      SUNNY     83  54  36 CALM      30.03F
SILOAM SPRINGS SUNNY     82  59  44 N3        30.02F
HARRISON AR    MOSUNNY   82  59  45 MISG      30.02F
NEAR YELLVILLE PTSUNNY   82  55  39 E7        30.01S

......KANSAS AND MISSOURI......

CITY           SKY/WX    TMP DP  RH WIND       PRES   REMARKS
KANSAS CTY INT MOSUNNY   83  59  44 SW6       30.01F
DOWNTOWN KC    SUNNY     83  57  41 CALM      29.99F
COLUMBIA       SUNNY     84  56  38 W8        30.01F
SEDALIA        SUNNY     86  53  32 VRB5      30.01F
ST JOSEPH      SUNNY     85  56  37 SE7       30.00F
ST LOUIS       MOSUNNY   88  56  33 W7        30.00F
SPIRIT OF STL  MOSUNNY   84  54  35 CALM      29.98F
KIRKSVILLE     PTSUNNY   83  57  41 N3        30.02F
WICHITA        PTSUNNY   86  55  34 SE7G16    29.98F
TOPEKA         SUNNY     87  57  35 S5        29.99F
OLATHE         MOSUNNY   82  59  45 SE3       30.01F

......TENNESSEE......

CITY           SKY/WX    TMP DP  RH WIND       PRES   REMARKS
MEMPHIS        MOSUNNY   85  59  41 N7        29.96F
NASHVILLE      MOSUNNY   86  58  38 NE9       29.96F

......ARKANSAS.......

CITY           SKY/WX    TMP DP  RH WIND       PRES   REMARKS
FAYETTEVILLE   MOSUNNY   83  57  41 E6        30.02F
FT SMITH       SUNNY     85  57  38 VRB3      29.98F
LITTLE ROCK    MOSUNNY   88  57  34 E6        29.97F

......OKLAHOMA.......

CITY           SKY/WX    TMP DP  RH WIND       PRES   REMARKS
TULSA          PTSUNNY   87  58  37 SE9       29.98F
PONCA CITY     MOSUNNY   86  56  35 SE12      29.98F
MCALESTER      MOSUNNY   85  56  37 CALM      29.99F
OKLAHOMA CITY  MOSUNNY   87  57  35 E8        29.98F

......IOWA............

CITY           SKY/WX    TMP DP  RH WIND       PRES   REMARKS
DES MOINES     CLOUDY    80  60  50 SW7       30.00F

......ILLINOIS........

CITY           SKY/WX    TMP DP  RH WIND       PRES   REMARKS
QUINCY         MOSUNNY   83  56  39 NW7       30.00F
CHICAGO        MOSUNNY   82  55  39 NW13      29.95F



USA.gov is the U.S. government's official web portal to all federal, state and local government web resources and services.